User: anonymous   Login
Location: Unspecified
(0.0000°N, 0.0000°E)
Time: 02:58:21
(UTC+00:00)
Language:

QIANFAN-35 - Orbit

View from above orbital plane
View from above orbital plane
View from above satellite
View from above satellite

Ground track
Ground track

The orbit is defined by the following mean orbital elements,

1 61568U          26145.58465177 +.00000000 +00000-0 +22789-3 0 00001
2 61568  88.9836  57.6358 0008707 100.1517 260.0660 14.28238716    03
Epoch (UTC): 25 May 2026 14:01:53
Eccentricity: 0.0008707
inclination: 88.9836°
perigee height: 791 km
apogee height: 804 km
right ascension of ascending node: 57.6358°
argument of perigee: 100.1517°
revolutions per day: 14.28238716
mean anomaly at epoch: 260.0660°

The dashed part of the orbit path shows where the satellite is in the earth's shadow,  

DLR